User: anonymous   Login
Location: Unspecified
(51.0950°N, 12.9690°E)
Time: 22:58:46
(UTC+00:00)
Language:

STRAND 1 - Orbit

View from above orbital plane
View from above orbital plane
View from above satellite
View from above satellite

Ground track
Ground track

The orbit data is extracted from the following two-line orbital elements,

1 39090U 13009E   24109.49493902  .00001127  00000-0  40248-3 0  9992
2 39090  98.3834 299.4253 0010029  73.6431 286.5857 14.35980969583672
Epoch (UTC): 18 April 2024 11:52:42
Eccentricity: 0.0010029
inclination: 98.3834°
perigee height: 764 km
apogee height: 779 km
right ascension of ascending node: 299.4253°
argument of perigee: 73.6431°
revolutions per day: 14.35980969
mean anomaly at epoch: 286.5857°
orbit number at epoch: 58367

The dashed part of the orbit path shows where the satellite is in the earth's shadow,  

DLR